Flag for Canada Weather past 2 weeks in Miramichi, New Brunswick, Canada

Now
39 °F

Fog.


Feels Like: 36 °F
Forecast: 38 / 48 °F
Wind: 5 mph from Northwest

Location: Bathurst Airport

Current Time: Oct 26, 2014 at 1:57:58 AM

Latest Report: Oct 26, 2014 at 1:00 AM


Visibility: 4 mi

Pressure: 29.53 "Hg

Humidity: 93%

Dew point: 37 °F

Location of MiramichiLocation

Historic Weather in Miramichi — Graph

°F

Miramichi temperature yesterday

Maximum temperature yesterday: 43 °F (at 11:00 AM)
Minimum temperature yesterday: 39 °F (at 8:00 PM)
Average temperature yesterday: 41 °F

Past Weeks' High & Low Weather Summary

 TemperatureHumidityPressure
High70 °F (Oct 15, 10:00 AM)100% (Oct 12, 3:00 AM)30.48 "Hg (Oct 12, 3:00 AM)
Low30 °F (Oct 12, 3:00 AM)26% (Oct 13, 5:00 PM)29.38 "Hg (Oct 19, 4:00 AM)
Average47 °F80%29.94 "Hg
* Reported Midnight between Oct 10 and Oct 11 — Midnight between Oct 25 and Oct 26, Miramichi, Weather by CustomWeather, © 2014

Note: Actual official high and low records may vary slightly from our data, if they occured in-between our weather recording intervals... More about our weather records

Advertising

Miramichi weather history for previous 24 hours

 ConditionsComfort  
Time TempWeatherWind HumidityBarometerVisibility
12:00 AM
Oct 26
39 °FFog.3 mph93%29.54 "Hg5 mi
11:00 PM
Oct 25
39 °FDrizzle. Fog.3 mph93%29.56 "Hg4 mi
10:00 PM39 °FSprinkles. Fog.3 mph100%29.57 "Hg4 mi
9:00 PM39 °FSprinkles. Fog.2 mph100%29.58 "Hg4 mi
8:00 PM39 °FDrizzle. Fog.3 mph100%29.59 "Hg3 mi
7:00 PM41 °FDrizzle. Fog.3 mph93%29.60 "Hg4 mi
6:00 PM41 °FDrizzle. Fog.5 mph93%29.59 "Hg3 mi
5:00 PM41 °FDrizzle. Fog.6 mph93%29.60 "Hg1 mi
4:00 PM41 °FDrizzle. Fog.7 mph93%29.59 "Hg1 mi
3:00 PM41 °FDrizzle. Fog.7 mph93%29.60 "Hg1 mi
2:00 PM41 °FDrizzle. Fog.6 mph93%29.60 "Hg4 mi
1:00 PM41 °FDrizzle. Fog.6 mph100%29.62 "Hg4 mi
12:00 PM41 °FDrizzle. Fog.10 mph93%29.63 "Hg2 mi
11:00 AM43 °FDrizzle. Fog.9 mph93%29.64 "Hg2 mi
10:00 AM41 °FDrizzle. Fog.7 mph100%29.64 "Hg2 mi
9:00 AM41 °FDrizzle. Fog.5 mph100%29.64 "Hg3 mi
8:00 AM41 °FLight rain. Fog.6 mph100%29.62 "Hg3 mi
7:00 AM41 °FLight rain. Fog.9 mph100%29.61 "Hg2 mi
6:00 AM41 °FLight rain. Fog.6 mph100%29.60 "Hg3 mi
5:00 AM41 °FLight rain. Fog.7 mph93%29.61 "Hg3 mi
4:00 AM41 °FLight rain. Fog.6 mph93%29.61 "Hg3 mi
3:00 AM41 °FLight rain. Fog.8 mph93%29.62 "Hg3 mi
2:00 AM41 °FLight rain. Fog.6 mph93%29.62 "Hg3 mi
1:00 AM41 °FLight rain. Fog.9 mph93%29.63 "Hg3 mi
Weather by CustomWeather, © 2014

See weather overviewHow to use our weather pages